Location: Gönnheim
(49.4488°N, 8.2383°E)
Time: 00:48:28
(UTC+00:00)

NOSS 2-1 (C) - Pass Details

Date: 19 May 2025
Orbit: 378 x 1699 km, 63.3° (Epoch: 15 June)

Event Time Altitude Azimuth Distance (km) Brightness Sun altitude
Exits shadow 22:55:45 50° 274° (W) 534 3.2 -20.3°
Maximum altitude 22:56:13 57° 314° (NW) 482 3.2 -20.3°
Drops below altitude 10° 22:59:11 10° 36° (NE) 1,409 6.1 -20.4°
Sets 23:01:09 0° 40° (NE) 2,262 7.1 -20.4°
